Terminal Aerodrome Forecast
Issued by NWS

Home | Current Version | Previous Version | Text Only | Print | Product List | Glossary Off
Versions: 1 2 3 4 5 6 7 8 9 10 11 12 13 14 15 16 17 18 19 20 21 22 23 24 25 26 27
000 FTUS41 KGYX 191322 AAB TAFMHT TAF AMD KMHT 191322Z 1913/2012 00000KT 2SM BR OVC003 FM191430 VRB03KT P6SM OVC008 FM191600 24008KT P6SM SCT040 FM200000 27003KT P6SM SCT120=

USA.gov is the U.S. government's official web portal to all federal, state and local government web resources and services.